ROMMA est une association bénévole à but non lucratif. Votre soutien est indispensable : ADHERER à ROMMA ou FAIRE un DON

St-Etienne-du-Bois - (01, Ain)

La Bresse (243 m)   Longitude: 5° 16' 47'' E   Latitude: 46° 17' 46'' N Station partenaire n°17
 

Détail journalier du     <<     >>

Température Precipitation Humidité Pression Vent Dir Rafale Dir. rafale Ensol.
Heure (°C) (mm) (%) (hPa) (km/h) (km/h) (min)
01:00 5.5095100800---0
02:00 5.2095100808N0
03:00 5.209510081N6NE0
04:00 5.1096100905NNE0
05:00 5.2096101003NNE0
06:00 4.909610101N5N0
07:00 4.8096101103N0
08:00 4.7096101100---0
09:00 5.3097101100---0
10:00 6.5092101106NNE20
11:00 7.6090101105NNE5
12:00 8.408610112N8N35
13:00 9.408210103N10N10
14:00 9.508010102NO8NO15
15:00 9.308010092NO8ONO0
16:00 10.307810091ONO5ONO40
17:00 6.8088100800---5
18:00 4.8091100803ONO0
19:00 4.2093100702ONO0
20:00 3.2094100702ONO0
21:00 3.009510061OSO6O0
22:00 2.5095100606OSO0
23:00 2.309610051OSO8S0
minuit 2.209410051SE8SE0

Graphique du 09-11-2019

 

Serveur OMMA